Погода в Уро

Россия / Республика Бурятия     53°32′50″N   109°50′29″E
темп.,
°C
ветер,
м/с
пор.,
м/с
влажн.,
%
обл.,
%
осадки,
мм/ч
давл.,
гПа
погр.,
м
14 мая, пт
пт1423:00−3ююз346985 0.0 101672
02:00−3ююз237315 0.0 101747
05:00−3ююз23785 0.0 101846
08:00+3зюз236012 0.0 1017639
11:00+7зюз444826 0.0 10151301
14:00+9зюз544075 0.0 10141708
17:00+10юз43379 0.0 10131403
20:00+5юз36560 0.0 1016167
15 мая, сб
сб1523:00+1ююз33660 0.0 101848
02:00+1ююз32660 0.0 101828
05:00+1ю22660 0.0 101722
08:00+9зюз24406 0.0 1015584
11:00+13з69285 0.0 10131950
14:00+12з7113030 0.0 10121684
17:00+11з6123910 0.0 10122060
20:00+7юз364875 0.0 1012172
16 мая, вс
вс1623:00+4юз5126012 0.0 1014485
02:00+3зюз4128395 0.2 1013697
05:00+4зюз5138599 0.1 1011764
08:00+7зюз61480100 0.1 10091082
11:00+7зюз81688100 1.9 10091296
14:00+8зюз7128699 2.4 1009944
17:00+7зюз4108696 0.2 1010808
20:00+6зюз478899 0.3 1011339
17 мая, пн
пн1723:00+2юз3593100 0.0 101186
02:00+1ююз338821 0.0 101052
05:00+2ю2283100 0.0 100720
08:00+3зсз0192100 2.0 1007321
11:00+4зюз2495100 2.1 1006543
14:00+5юз489298 2.2 1006599
17:00+4юз5109398 0.0 1005622
20:00+4юз369181 0.1 1003302
18 мая, вт
вт1823:00+4юз2492100 0.4 1002111
02:00+5юз41095100 1.4 999704
05:00+5зюз51297100 0.4 999771
08:00+4зюз599265 0.6 1003546
11:00+7з811555 0.1 10041596
14:00+9зсз7123477 0.2 10052517
17:00+8з7124065 0.0 10052331
20:00+5зюз38565 0.1 1005331